Location: Newark
(39.5667°N, 8.9833°E)
Time: 21:20:46
(UTC+00:00)

Vanguard 2 - Visible Passes

Search period start: 18 October 2019 00:00
Search period end: 28 October 2019 00:00
Orbit: 554 x 2937 km, 32.9° (Epoch: 17 October)

Date Brightness Start Highest point End Pass type
(mag) Time Alt. Az. Time Alt. Az. Time Alt. Az.
18 Oct 9.7 18:11:09 10° SW 18:20:22 55° SSE 18:28:24 28° E visible
18 Oct 9.9 20:19:10 10° W 20:29:47 64° SSW 20:29:47 64° SSW visible
18 Oct 11.3 22:28:47 10° W 22:31:10 18° W 22:31:10 18° W visible
19 Oct 9.6 18:28:50 10° WSW 18:38:14 60° SSE 18:44:57 35° ESE visible
19 Oct 10.0 20:37:07 10° W 20:46:20 56° SW 20:46:20 56° SW visible
19 Oct 11.5 22:46:59 10° W 22:47:43 12° W 22:47:43 12° W visible
20 Oct 9.6 18:46:37 10° WSW 18:56:11 63° S 19:01:30 42° ESE visible
20 Oct 10.3 20:55:06 10° W 21:02:53 46° WSW 21:02:53 46° WSW visible
21 Oct 9.5 16:57:14 10° SW 17:04:26 46° SSE 17:16:13 10° E visible
21 Oct 9.6 19:04:27 10° WSW 19:14:10 64° S 19:18:03 50° SE visible
21 Oct 10.5 21:13:07 10° W 21:19:26 37° WSW 21:19:26 37° WSW visible
22 Oct 9.4 17:14:48 10° WSW 17:22:12 53° SSE 17:33:15 13° E visible
22 Oct 9.6 19:22:20 10° W 19:32:11 63° S 19:34:38 56° SE visible
22 Oct 10.8 21:31:14 10° W 21:36:01 28° WSW 21:36:01 28° WSW visible
23 Oct 9.3 17:32:30 10° WSW 17:40:03 57° SSE 17:49:51 18° E visible
23 Oct 9.7 19:40:15 10° W 19:50:13 59° S 19:51:14 58° S visible
23 Oct 11.1 21:49:27 10° W 21:52:37 21° W 21:52:37 21° W visible
24 Oct 9.3 17:50:16 10° WSW 17:57:58 60° S 18:06:28 22° ESE visible
24 Oct 9.8 19:58:12 10° W 20:07:52 54° SSW 20:07:52 54° SSW visible
24 Oct 11.3 22:07:52 10° W 22:09:15 14° W 22:09:15 14° W visible
25 Oct 9.4 18:08:06 10° WSW 18:15:55 60° S 18:23:09 27° ESE visible
25 Oct 10.0 20:16:14 10° W 20:24:32 46° SW 20:24:32 46° SW visible
26 Oct 9.4 18:25:58 10° W 18:33:54 57° S 18:39:52 32° SE visible
26 Oct 10.3 20:34:22 10° W 20:41:15 37° SW 20:41:15 37° SW visible
27 Oct 9.5 18:43:53 10° W 18:51:53 53° S 18:56:38 36° SE visible
27 Oct 10.6 20:52:40 10° W 20:58:02 28° SW 20:58:02 28° SW visible
